Location: Yellowknife
(62.4500°N, 114.3500°W)
Time: 16:04:25
(UTC-06:00)

Amateur Radio Satellites - All Passes

Search period start: 25 October 2014 15:34
Search period end: 26 October 2014 15:34
Location: Yellowknife, 62.4500°N, 114.3500°W

Satellite Date Start Highest point End Downlink Frequencies (MHz)
Time Altitude Azimuth
Gurwin Techsat 1B 25 Oct 15:35:58 15:41:12 56° 258° (WSW) 15:46:28 435.225 FM
UOSAT-12 25 Oct 15:36:43 15:40:07 20° 121° (ESE) 15:43:33 437.025 FM, 437.400 FM
Oscar 19 25 Oct 15:39:57 15:43:47 21° 275° (W) 15:47:37 437.125 CW, 437.150 USB
TMSAT-1 25 Oct 15:46:38 15:51:53 59° 257° (WSW) 15:57:10 436.925 FM
SO-50 25 Oct 15:55:45 16:00:21 71° 149° (SSE) 16:05:06 436.795 FM
AO-27 25 Oct 15:58:43 16:03:10 27° 270° (W) 16:07:38 436.795 MHz FM
AO-Echo 25 Oct 16:14:37 16:18:14 20° 277° (W) 16:21:57 ?
AO-7 25 Oct 16:18:36 16:26:55 83° 245° (WSW) 16:35:18 29.400 - 29.500 MHz
Uosat F 25 Oct 16:19:00 16:24:01 72° 65° (ENE) 16:29:05 435.120 FM
JAS-1B 25 Oct 16:22:38 16:26:08 16° 281° (WNW) 16:29:40 435.800 - 435.900 CW/SSB
HO-68 25 Oct 16:22:42 16:27:42 21° 0° (N) 16:32:43 435.675 MHz FM
Oscar 16 25 Oct 16:29:29 16:30:37 11° 286° (WNW) 16:31:45 437.025 USB, Beacon 2401.1428
KITSAT 1 25 Oct 16:43:07 16:51:14 74° 345° (NNW) 16:59:22 435.175 FM
ISS 25 Oct 16:44:59 16:46:44 14° 180° (S) 16:48:28 145.800 FM
Uribyol 2 25 Oct 16:48:29 16:51:16 14° 281° (W) 16:54:04 436.500 FM
Saudisat 1A 25 Oct 16:49:55 16:53:27 23° 234° (SW) 16:56:57 436.775 MHz
ITAMSAT 1 25 Oct 16:55:00 16:57:36 14° 282° (WNW) 17:00:12 435.822 SSB
Hamsat 25 Oct 16:58:33 17:02:16 32° 56° (ENE) 17:06:00 145.90 MHz
JAS-2 25 Oct 16:59:19 17:05:39 59° 58° (ENE) 17:12:50 435.800 - 435.900 CW/SSB, 435.910 FM
UOSAT-12 25 Oct 17:14:54 17:19:32 58° 143° (SE) 17:24:13 437.025 FM, 437.400 FM
Gurwin Techsat 1B 25 Oct 17:19:17 17:22:23 15° 281° (W) 17:25:30 435.225 FM
TMSAT-1 25 Oct 17:29:43 17:32:58 16° 280° (W) 17:36:15 436.925 FM
SO-50 25 Oct 17:36:22 17:41:03 70° 352° (N) 17:45:52 436.795 FM
SO-67 25 Oct 17:38:21 17:40:18 14° 48° (NE) 17:42:14 435.3500 MHz FM
OPAL 25 Oct 17:53:20 17:56:45 18° 87° (E) 18:00:08 ?
Uosat F 25 Oct 17:58:50 18:03:17 31° 267° (W) 18:07:46 435.120 FM
HO-68 25 Oct 18:07:44 18:13:29 27° 26° (NNE) 18:19:14 435.675 MHz FM
AO-7 25 Oct 18:13:42 18:20:56 32° 270° (W) 18:28:14 29.400 - 29.500 MHz
Hamsat 25 Oct 18:33:56 18:38:05 58° 258° (WSW) 18:42:14 145.90 MHz
KITSAT 1 25 Oct 18:39:16 18:47:23 73° 13° (NNE) 18:55:30 435.175 FM
JAS-2 25 Oct 18:44:43 18:50:57 52° 263° (W) 18:58:01 435.800 - 435.900 CW/SSB, 435.910 FM
UOSAT-12 25 Oct 18:54:58 18:59:43 75° 346° (NNW) 19:04:30 437.025 FM, 437.400 FM
SO-67 25 Oct 19:09:17 19:12:42 64° 69° (ENE) 19:16:09 435.3500 MHz FM
SO-50 25 Oct 19:17:12 19:21:57 78° 16° (NNE) 19:26:49 436.795 FM
Oscar 11 25 Oct 19:19:47 19:21:24 12° 34° (NNE) 19:23:01 145.825 FM, Beacon 2401.500 USB
OPAL 25 Oct 19:31:34 19:36:35 69° 109° (ESE) 19:41:32 ?
STRAND 1 25 Oct 19:38:38 19:42:53 25° 89° (E) 19:47:06 ?
HO-68 25 Oct 19:53:05 19:59:59 53° 51° (NE) 20:06:56 435.675 MHz FM
ZACube-1 25 Oct 20:10:45 20:13:14 15° 39° (NE) 20:15:40 437.345 MHz
UKube-1 25 Oct 20:12:40 20:16:07 23° 47° (NE) 20:19:35 145.840 MHz, 145.915 MHz
Hamsat 25 Oct 20:13:01 20:14:58 13° 279° (W) 20:16:55 145.90 MHz
AO-40 25 Oct 20:23:42 00:35:59 21° 185° (S) 05:16:29 Beacon 2401.320
JAS-2 25 Oct 20:33:52 20:37:58 17° 289° (WNW) 20:42:20 435.800 - 435.900 CW/SSB, 435.910 FM
KITSAT 1 25 Oct 20:34:59 20:43:04 74° 220° (SW) 20:51:07 435.175 FM
UOSAT-12 25 Oct 20:35:27 20:40:13 72° 10° (N) 20:44:58 437.025 FM, 437.400 FM
SO-67 25 Oct 20:43:22 20:46:02 21° 270° (W) 20:48:43 435.3500 MHz FM
Oscar 11 25 Oct 20:52:38 20:56:31 33° 56° (NE) 21:00:25 145.825 FM, Beacon 2401.500 USB
FUNcube-1 25 Oct 20:53:45 20:57:16 23° 49° (NE) 21:00:45 145.950 - 145.970 MHz USB
SO-50 25 Oct 20:57:50 21:02:30 53° 219° (SW) 21:07:13 436.795 FM
OPAL 25 Oct 21:10:43 21:15:17 36° 312° (NW) 21:19:48 ?
STRAND 1 25 Oct 21:17:33 21:22:46 89° 291° (WNW) 21:27:57 ?
RS-15 25 Oct 21:22:47 21:28:51 17° 93° (E) 21:34:55 29.354 - 29.394 USB, Beacon 29.352 USB
HO-68 25 Oct 21:40:35 21:47:43 63° 255° (WSW) 21:54:54 435.675 MHz FM
ZACube-1 25 Oct 21:44:27 21:48:44 43° 60° (ENE) 21:52:57 437.345 MHz
UKube-1 25 Oct 21:47:28 21:51:50 83° 69° (ENE) 21:56:15 145.840 MHz, 145.915 MHz
UOSAT-12 25 Oct 22:15:44 22:20:28 66° 213° (SSW) 22:25:09 437.025 FM, 437.400 FM
Oscar 11 25 Oct 22:28:17 22:32:34 59° 257° (WSW) 22:36:52 145.825 FM, Beacon 2401.500 USB
FUNcube-1 25 Oct 22:28:38 22:33:11 81° 70° (ENE) 22:37:39 145.950 - 145.970 MHz USB
KITSAT 1 25 Oct 22:30:35 22:37:31 33° 245° (WSW) 22:44:26 435.175 FM
SO-50 25 Oct 22:39:01 22:42:16 18° 240° (WSW) 22:45:31 436.795 FM
OPAL 25 Oct 22:50:02 22:53:04 16° 335° (NNW) 22:56:06 ?
STRAND 1 25 Oct 22:57:07 23:01:31 29° 313° (NW) 23:05:54 ?
Oscar 10/S400 25 Oct 23:14:42 23:50:30 21° 212° (SSW) 02:05:59 145.825 - 145.975 CW/USB, Beacon 145.810 USB
ZACube-1 25 Oct 23:20:49 23:25:11 45° 261° (W) 23:29:30 437.345 MHz
UKube-1 25 Oct 23:25:08 23:28:35 23° 270° (W) 23:32:04 145.840 MHz, 145.915 MHz
RS-15 25 Oct 23:28:00 23:38:07 46° 121° (ESE) 23:48:17 29.354 - 29.394 USB, Beacon 29.352 USB
HO-68 25 Oct 23:31:40 23:36:56 22° 279° (W) 23:42:16 435.675 MHz FM
UOSAT-12 25 Oct 23:56:15 00:00:01 24° 236° (SW) 00:03:44 437.025 FM, 437.400 FM
FUNcube-1 26 Oct 00:06:25 00:10:05 24° 271° (W) 00:13:43 145.950 - 145.970 MHz USB
Oscar 11 26 Oct 00:07:33 00:09:42 13° 279° (W) 00:11:52 145.825 FM, Beacon 2401.500 USB
OPAL 26 Oct 00:28:36 00:30:17 12° 359° (N) 00:31:59 ?
STRAND 1 26 Oct 00:36:56 00:39:21 13° 336° (NNW) 00:41:46 ?
ZACube-1 26 Oct 01:01:35 01:02:44 11° 283° (WNW) 01:03:52 437.345 MHz
MaSat-1 26 Oct 01:26:49 01:30:24 44° 128° (SE) 01:33:37 437.345 MHz
RS-15 26 Oct 01:38:36 01:49:33 85° 150° (SSE) 02:00:42 29.354 - 29.394 USB, Beacon 29.352 USB
JAS-1B 26 Oct 01:58:40 02:03:33 22° 85° (E) 02:08:59 435.800 - 435.900 CW/SSB
Oscar 19 26 Oct 01:59:19 02:02:54 19° 84° (E) 02:06:28 437.125 CW, 437.150 USB
OPAL 26 Oct 02:04:37 02:07:29 15° 23° (NNE) 02:10:19 ?
AO-27 26 Oct 02:20:40 02:23:30 15° 79° (E) 02:26:20 436.795 MHz FM
AO-Echo 26 Oct 02:29:47 02:33:43 21° 84° (E) 02:37:38 ?
Oscar 16 26 Oct 02:44:53 02:49:35 35° 94° (E) 02:54:15 437.025 USB, Beacon 2401.1428
MaSat-1 26 Oct 03:02:30 03:06:02 48° 328° (NNW) 03:09:09 437.345 MHz
Uribyol 2 26 Oct 03:06:53 03:11:21 28° 90° (E) 03:15:47 436.500 FM
ITAMSAT 1 26 Oct 03:13:14 03:17:47 29° 91° (E) 03:22:18 435.822 SSB
Oscar 19 26 Oct 03:38:04 03:43:13 70° 106° (ESE) 03:48:20 437.125 CW, 437.150 USB
OPAL 26 Oct 03:40:42 03:45:10 32° 46° (NE) 03:49:36 ?
Gurwin Techsat 1B 26 Oct 03:40:49 03:45:27 29° 91° (E) 03:50:03 435.225 FM
JAS-1B 26 Oct 03:49:05 03:55:18 71° 107° (ESE) 04:02:38 435.800 - 435.900 CW/SSB
TMSAT-1 26 Oct 03:51:11 03:55:44 28° 90° (E) 04:00:15 436.925 FM
RS-15 26 Oct 03:51:24 04:02:24 79° 1° (N) 04:13:43 29.354 - 29.394 USB, Beacon 29.352 USB
STRAND 1 26 Oct 03:51:24 03:53:56 14° 25° (NNE) 03:56:28 ?
AO-27 26 Oct 03:59:06 04:04:16 53° 102° (ESE) 04:09:24 436.795 MHz FM
AO-Echo 26 Oct 04:08:03 04:13:22 73° 106° (ESE) 04:18:43 ?
AO-7 26 Oct 04:08:04 04:13:34 19° 77° (ENE) 04:19:04 29.400 - 29.500 MHz
Uosat F 26 Oct 04:17:52 04:18:53 11° 75° (ENE) 04:19:55 435.120 FM
Oscar 16 26 Oct 04:24:13 04:29:19 65° 296° (WNW) 04:34:24 437.025 USB, Beacon 2401.1428
MaSat-1 26 Oct 04:39:20 04:42:10 24° 350° (N) 04:44:45 437.345 MHz
Sapphire 26 Oct 04:41:08 04:45:31 26° 117° (ESE) 04:49:55 437.095 MHz 1200 baud AX-25 AFSK
Uribyol 2 26 Oct 04:46:11 04:51:27 82° 293° (WNW) 04:56:40 436.500 FM
ITAMSAT 1 26 Oct 04:52:35 04:57:51 79° 293° (WNW) 05:03:05 435.822 SSB
PCSat 26 Oct 05:02:50 05:07:40 34° 123° (ESE) 05:12:32 145.825 MHz
Oscar 19 26 Oct 05:17:43 05:22:21 35° 308° (NW) 05:26:57 437.125 CW, 437.150 USB
OPAL 26 Oct 05:18:36 05:23:44 83° 247° (WSW) 05:28:49 ?
Gurwin Techsat 1B 26 Oct 05:20:39 05:26:01 80° 293° (WNW) 05:31:20 435.225 FM
STRAND 1 26 Oct 05:27:21 05:31:48 30° 48° (NE) 05:36:16 ?
TMSAT-1 26 Oct 05:30:56 05:36:18 83° 292° (WNW) 05:41:37 436.925 FM
AO-27 26 Oct 05:38:49 05:43:48 45° 304° (WNW) 05:48:47 436.795 MHz FM
JAS-1B 26 Oct 05:40:11 05:45:52 42° 309° (NW) 05:52:24 435.800 - 435.900 CW/SSB
JAS-2 26 Oct 05:40:58 05:47:10 26° 81° (E) 05:53:30 435.800 - 435.900 CW/SSB, 435.910 FM
AO-Echo 26 Oct 05:47:08 05:51:53 35° 308° (NW) 05:56:41 ?
Uosat F 26 Oct 05:54:19 05:59:07 41° 98° (E) 06:03:54 435.120 FM
AO-7 26 Oct 06:00:24 06:08:32 53° 102° (ESE) 06:16:39 29.400 - 29.500 MHz
Oscar 16 26 Oct 06:04:03 06:07:59 23° 319° (NW) 06:11:54 437.025 USB, Beacon 2401.1428
RS-15 26 Oct 06:04:12 06:15:12 82° 212° (SSW) 06:26:36 29.354 - 29.394 USB, Beacon 29.352 USB
Hamsat 26 Oct 06:09:22 06:11:40 14° 82° (E) 06:13:59 145.90 MHz
MaSat-1 26 Oct 06:15:48 06:18:32 26° 14° (NNE) 06:21:01 437.345 MHz
Sapphire 26 Oct 06:22:52 06:28:17 73° 140° (SE) 06:33:44 437.095 MHz 1200 baud AX-25 AFSK
Uribyol 2 26 Oct 06:26:03 06:30:25 28° 315° (NW) 06:34:45 436.500 FM
ITAMSAT 1 26 Oct 06:32:28 06:36:48 27° 316° (NW) 06:41:06 435.822 SSB
PCSat 26 Oct 06:45:15 06:50:42 89° 146° (SSE) 06:56:11 145.825 MHz
Oscar 19 26 Oct 06:57:41 07:00:30 15° 331° (NNW) 07:03:19 437.125 CW, 437.150 USB
OPAL 26 Oct 06:59:22 07:03:22 23° 269° (W) 07:07:20 ?
Gurwin Techsat 1B 26 Oct 07:01:01 07:05:26 27° 315° (NW) 07:09:50 435.225 FM
STRAND 1 26 Oct 07:05:26 07:10:36 87° 250° (WSW) 07:15:49 ?
TMSAT-1 26 Oct 07:11:15 07:15:42 28° 314° (NW) 07:20:09 436.925 FM
AO-27 26 Oct 07:18:50 07:22:19 18° 326° (NNW) 07:25:48 436.795 MHz FM
JAS-2 26 Oct 07:25:52 07:33:28 70° 104° (ESE) 07:41:21 435.800 - 435.900 CW/SSB, 435.910 FM
AO-Echo 26 Oct 07:26:29 07:29:27 15° 330° (NNW) 07:32:25 ?
JAS-1B 26 Oct 07:31:11 07:35:19 20° 333° (NNW) 07:39:46 435.800 - 435.900 CW/SSB
Uosat F 26 Oct 07:33:11 07:38:08 55° 300° (WNW) 07:43:04 435.120 FM
Oscar 16 26 Oct 07:44:10 07:45:47 11° 342° (NNW) 07:47:23 437.025 USB, Beacon 2401.1428
Hamsat 26 Oct 07:44:17 07:48:29 65° 104° (ESE) 07:52:40 145.90 MHz
MaSat-1 26 Oct 07:51:32 07:54:34 71° 38° (NE) 07:57:16 437.345 MHz
AO-7 26 Oct 07:53:30 08:01:43 67° 307° (NW) 08:09:57 29.400 - 29.500 MHz
SO-67 26 Oct 07:55:11 07:57:41 18° 89° (E) 08:00:10 435.3500 MHz FM
Uribyol 2 26 Oct 08:06:06 08:08:28 13° 338° (NNW) 08:10:50 436.500 FM
Sapphire 26 Oct 08:06:35 08:11:58 60° 344° (NNW) 08:17:23 437.095 MHz 1200 baud AX-25 AFSK
ITAMSAT 1 26 Oct 08:12:32 08:14:51 13° 339° (NNW) 08:17:10 435.822 SSB
RS-15 26 Oct 08:16:28 08:26:33 44° 241° (WSW) 08:37:00 29.354 - 29.394 USB, Beacon 29.352 USB
PCSat 26 Oct 08:29:11 08:34:33 55° 350° (N) 08:39:55 145.825 MHz
Gurwin Techsat 1B 26 Oct 08:41:33 08:43:56 13° 339° (NNW) 08:46:20 435.225 FM
Saudisat 1A 26 Oct 08:44:43 08:48:17 25° 127° (SE) 08:51:53 436.775 MHz
STRAND 1 26 Oct 08:46:26 08:50:33 24° 272° (W) 08:54:41 ?
TMSAT-1 26 Oct 08:51:44 08:54:12 13° 338° (NNW) 08:56:39 436.925 FM
HO-68 26 Oct 08:56:31 09:01:13 18° 77° (ENE) 09:05:53 435.675 MHz FM
AO-27 26 Oct 08:58:53 09:00:06 11° 350° (N) 09:01:18 436.795 MHz FM
JAS-2 26 Oct 09:11:11 09:18:22 51° 306° (NW) 09:25:52 435.800 - 435.900 CW/SSB, 435.910 FM
Uosat F 26 Oct 09:12:28 09:16:06 20° 322° (NW) 09:19:43 435.120 FM
Hamsat 26 Oct 09:20:35 09:24:14 29° 305° (NW) 09:27:52 145.90 MHz
JAS-1B 26 Oct 09:20:58 09:23:57 14° 1° (N) 09:27:04 435.800 - 435.900 CW/SSB
SO-67 26 Oct 09:27:37 09:31:06 73° 290° (WNW) 09:34:33 435.3500 MHz FM
MaSat-1 26 Oct 09:27:40 09:29:45 19° 243° (WSW) 09:31:42 437.345 MHz
Uribyol 2 26 Oct 09:45:27 09:46:01 10° 3° (N) 09:46:35 436.500 FM
AO-7 26 Oct 09:46:15 09:53:31 36° 333° (NNW) 10:00:47 29.400 - 29.500 MHz
Sapphire 26 Oct 09:50:44 09:56:06 55° 9° (N) 10:01:28 437.095 MHz 1200 baud AX-25 AFSK
ITAMSAT 1 26 Oct 09:51:43 09:52:24 10° 3° (N) 09:53:05 435.822 SSB
Oscar 11 26 Oct 10:05:44 10:08:09 15° 82° (E) 10:10:35 145.825 FM, Beacon 2401.500 USB
PCSat 26 Oct 10:13:16 10:18:40 59° 15° (NNE) 10:24:03 145.825 MHz
Oscar 19 26 Oct 10:13:33 10:15:23 12° 20° (NNE) 10:17:12 437.125 CW, 437.150 USB
Gurwin Techsat 1B 26 Oct 10:21:09 10:21:56 10° 3° (N) 10:22:43 435.225 FM
Saudisat 1A 26 Oct 10:22:57 10:27:20 70° 149° (SSE) 10:31:46 436.775 MHz
RS-15 26 Oct 10:30:02 10:35:44 16° 269° (W) 10:41:32 29.354 - 29.394 USB, Beacon 29.352 USB
TMSAT-1 26 Oct 10:31:31 10:32:09 10° 2° (N) 10:32:47 436.925 FM
AO-27 26 Oct 10:35:54 10:37:38 12° 15° (NNE) 10:39:21 436.795 MHz FM
AO-Echo 26 Oct 10:41:22 10:43:06 12° 19° (NNE) 10:44:52 ?
HO-68 26 Oct 10:43:36 10:50:41 54° 102° (ESE) 10:57:43 435.675 MHz FM
Uosat F 26 Oct 10:52:08 10:53:17 11° 346° (NNW) 10:54:26 435.120 FM
JAS-2 26 Oct 10:56:18 11:02:06 26° 330° (NNW) 11:08:10 435.800 - 435.900 CW/SSB, 435.910 FM
Oscar 16 26 Oct 10:57:39 11:00:43 16° 31° (NNE) 11:03:46 437.025 USB, Beacon 2401.1428
Hamsat 26 Oct 10:58:22 10:59:04 10° 327° (NNW) 10:59:46 145.90 MHz
ZACube-1 26 Oct 10:59:18 11:02:28 20° 86° (E) 11:05:35 437.345 MHz
UKube-1 26 Oct 11:00:57 11:04:58 34° 96° (E) 11:08:57 145.840 MHz, 145.915 MHz
SO-67 26 Oct 11:01:24 11:03:34 16° 310° (NW) 11:05:43 435.3500 MHz FM
JAS-1B 26 Oct 11:08:32 11:12:37 21° 29° (NNE) 11:16:53 435.800 - 435.900 CW/SSB
KITSAT 1 26 Oct 11:20:40 11:23:49 13° 95° (E) 11:26:57 435.175 FM
Uribyol 2 26 Oct 11:20:46 11:23:37 15° 27° (NNE) 11:26:29 436.500 FM
ITAMSAT 1 26 Oct 11:27:06 11:30:03 15° 28° (NNE) 11:32:59 435.822 SSB
Sapphire 26 Oct 11:34:29 11:39:59 88° 33° (NNE) 11:45:27 437.095 MHz 1200 baud AX-25 AFSK
AO-7 26 Oct 11:37:50 11:44:26 28° 359° (N) 11:51:03 29.400 - 29.500 MHz
Oscar 11 26 Oct 11:40:54 11:45:14 64° 104° (ESE) 11:49:31 145.825 FM, Beacon 2401.500 USB
FUNcube-1 26 Oct 11:43:15 11:47:19 38° 96° (E) 11:51:17 145.950 - 145.970 MHz USB
Oscar 19 26 Oct 11:49:10 11:53:14 24° 43° (NE) 11:57:18 437.125 CW, 437.150 USB
PCSat 26 Oct 11:56:55 12:02:22 76° 219° (SW) 12:07:48 145.825 MHz
Gurwin Techsat 1B 26 Oct 11:57:01 12:00:01 15° 28° (NNE) 12:03:01 435.225 FM
Saudisat 1A 26 Oct 12:02:37 12:07:03 69° 352° (N) 12:11:29 436.775 MHz
TMSAT-1 26 Oct 12:07:17 12:10:10 15° 27° (NNE) 12:13:03 436.925 FM
AO-27 26 Oct 12:11:38 12:15:32 22° 39° (NE) 12:19:26 436.795 MHz FM
AO-Echo 26 Oct 12:16:21 12:20:19 23° 42° (NE) 12:24:21 ?
Uosat F 26 Oct 12:29:45 12:30:07 10° 10° (N) 12:30:29 435.120 FM
HO-68 26 Oct 12:31:33 12:38:37 60° 306° (NW) 12:45:39 435.675 MHz FM
Oscar 16 26 Oct 12:34:12 12:38:57 39° 54° (NE) 12:43:43 437.025 USB, Beacon 2401.1428
ZACube-1 26 Oct 12:35:11 12:39:33 89° 108° (ESE) 12:43:48 437.345 MHz
UKube-1 26 Oct 12:37:06 12:41:25 55° 297° (WNW) 12:45:41 145.840 MHz, 145.915 MHz
JAS-2 26 Oct 12:40:26 12:45:02 19° 355° (N) 12:49:52 435.800 - 435.900 CW/SSB, 435.910 FM
JAS-1B 26 Oct 12:56:44 13:02:11 50° 55° (NE) 13:07:51 435.800 - 435.900 CW/SSB
Uribyol 2 26 Oct 12:57:11 13:01:51 33° 50° (NE) 13:06:30 436.500 FM
ITAMSAT 1 26 Oct 13:03:37 13:08:19 35° 51° (NE) 13:13:02 435.822 SSB
SO-50 26 Oct 13:05:15 13:07:10 13° 114° (ESE) 13:09:07 436.795 FM
KITSAT 1 26 Oct 13:09:42 13:16:59 39° 119° (ESE) 13:24:16 435.175 FM
Oscar 11 26 Oct 13:17:25 13:21:13 31° 305° (NW) 13:25:01 145.825 FM, Beacon 2401.500 USB
Sapphire 26 Oct 13:18:07 13:23:04 36° 236° (WSW) 13:27:59 437.095 MHz 1200 baud AX-25 AFSK
FUNcube-1 26 Oct 13:19:41 13:23:52 47° 298° (WNW) 13:27:55 145.950 - 145.970 MHz USB
Oscar 19 26 Oct 13:26:50 13:31:58 72° 66° (ENE) 13:37:06 437.125 CW, 437.150 USB
AO-7 26 Oct 13:28:08 13:35:20 35° 26° (NNE) 13:42:33 29.400 - 29.500 MHz
Gurwin Techsat 1B 26 Oct 13:33:58 13:38:44 35° 51° (NE) 13:43:31 435.225 FM
PCSat 26 Oct 13:40:41 13:45:11 27° 242° (WSW) 13:49:40 145.825 MHz
Saudisat 1A 26 Oct 13:42:29 13:46:56 77° 15° (NNE) 13:51:23 436.775 MHz
TMSAT-1 26 Oct 13:44:06 13:48:48 33° 50° (NE) 13:53:31 436.925 FM
AO-27 26 Oct 13:49:07 13:54:15 59° 61° (ENE) 13:59:25 436.795 MHz FM
AO-Echo 26 Oct 13:53:22 13:58:22 68° 65° (ENE) 14:03:34 ?
Uosat F 26 Oct 14:03:56 14:07:12 18° 34° (NE) 14:10:28 435.120 FM
ZACube-1 26 Oct 14:12:02 14:15:32 24° 310° (NW) 14:18:57 437.345 MHz
Oscar 16 26 Oct 14:13:04 14:18:12 63° 256° (WSW) 14:23:20 437.025 USB, Beacon 2401.1428
UKube-1 26 Oct 14:13:58 14:16:52 18° 319° (NW) 14:19:46 145.840 MHz, 145.915 MHz
HO-68 26 Oct 14:19:21 14:25:18 29° 330° (NNW) 14:31:14 435.675 MHz FM
JAS-2 26 Oct 14:22:52 14:27:49 22° 20° (NNE) 14:33:06 435.800 - 435.900 CW/SSB, 435.910 FM
Uribyol 2 26 Oct 14:35:46 14:41:01 78° 252° (WSW) 14:46:18 436.500 FM
ITAMSAT 1 26 Oct 14:42:19 14:47:33 74° 253° (WSW) 14:52:50 435.822 SSB
SO-50 26 Oct 14:42:19 14:46:38 41° 136° (SE) 14:51:05 436.795 FM
JAS-1B 26 Oct 14:47:35 14:53:05 49° 260° (W) 14:58:46 435.800 - 435.900 CW/SSB
Oscar 11 26 Oct 14:54:57 14:56:18 11° 328° (NNW) 14:57:38 145.825 FM, Beacon 2401.500 USB
FUNcube-1 26 Oct 14:56:54 14:59:23 15° 321° (NW) 15:01:50 145.950 - 145.970 MHz USB
KITSAT 1 26 Oct 15:03:35 15:11:41 82° 145° (SE) 15:19:49 435.175 FM
Sapphire 26 Oct 15:04:25 15:05:04 10° 259° (WSW) 15:05:42 437.095 MHz 1200 baud AX-25 AFSK
Oscar 19 26 Oct 15:07:13 15:11:47 31° 267° (W) 15:16:22 437.125 CW, 437.150 USB
Gurwin Techsat 1B 26 Oct 15:13:07 15:18:26 75° 253° (WSW) 15:23:48 435.225 FM
Saudisat 1A 26 Oct 15:22:09 15:26:28 51° 218° (SW) 15:30:45 436.775 MHz
TMSAT-1 26 Oct 15:23:05 15:28:25 79° 252° (WSW) 15:33:46 436.925 FM
